AirNav   Air Wisconsin pilot careers
 
 1565 users online  

KDAA Davison Army Airfield
Fort Belvoir, Virginia, USA

GOING TO FORT BELVOIR?


FAA INFORMATION EFFECTIVE 01 FEBRUARY 2018

Location

FAA Identifier: DAA
Lat/Long: 38-42-53.7210N / 077-10-51.2210W
38-42.895350N / 077-10.853683W
38.7149225 / -77.1808947
(estimated)
Elevation: 73.5 ft. / 22.4 m (surveyed)
Variation: 09W (1985)
From city: 3 miles NW of FORT BELVOIR, VA
Time zone: UTC -5 (UTC -4 during Daylight Saving Time)
Zip code: 22060

Airport Operations

Airport use: Private use. Permission required prior to landing
Control tower: yes
ARTCC: WASHINGTON CENTER
FSS: LEESBURG FLIGHT SERVICE STATION
NOTAMs facility: DCA (NOTAM-D service available)
Attendance: CONTINUOUS
Pattern altitude: 1173.5 ft. MSL
Segmented circle: no
Lights: AVBL 0230-1100Z++ MON-FRI AND 24 HRS ON WKNDS AND HOLS. WHEN TWR CLSD HIRL RWY 14-32 SET TO PCL. TO INCR INTS ACTIVATE CTAF.
Beacon: white-white-green (lighted military airport)
Operates sunset to sunrise.

Airport Communications

CTAF: 126.3
ATIS: 128.175
DAVIDSON GROUND: 121.9 351.8 [1100-0230Z++ MON-FRI EXC HOL.]
DAVIDSON TOWER: 126.3 229.4 241.0 [1100-0230Z++ MON-FRI EXC HOL.]
POTOMAC APPROACH: 118.95 124.7
POTOMAC DEPARTURE: 118.95 124.7
CLEARANCE DELIVERY: 351.8
ARNG OPS: 52.75
ASR/PAR: 118.85 119.95 248.5 265.6
BASE OPS: 139.4 34.1
CLTCH DP: 118.95
EMERG: 121.5 243.0
FRDMM STAR: 118.675
IRONS STAR: 126.4
JDUBB DP: 118.95
NUMMY STAR: 118.675
PMSV METRO: 139.4
PTD: 139.4 34.1
SCRAM DP: 118.95
TIKEE STAR: 120.45
TRUPS STAR: 118.675
WX ASOS at DCA (11 nm NE): 132.65 (703-412-8140)
WX AWOS-3PT at HEF (16 nm W): PHONE 703-361-6160
WX ASOS at IAD (19 nm NW): PHONE 703-661-2990
  • PAR RWY 32 LOCATED AT LAT 38-43-03.27N LONG 077-10-58.86W. ELEV 44.2.
  • PAR RWY 14 LOCATED AT LAT 38-43-48.92N LONG 077-10-39.54W. ELEV 56.0.
  • VIP ARR CTC BASE OPS 15 MIN PRIOR TO LDG.

Nearby radio navigation aids

VOR radial/distance  VOR name  Freq  Var
DCAr227/11.0WASHINGTON VOR/DME111.0009W
ADWr259/15.7ANDREWS VORTAC113.1010W
AMLr143/18.8ARMEL VOR/DME113.5008W
OTTr282/20.4NOTTINGHAM VORTAC113.7010W
BRVr029/24.1BROOKE VORTAC114.5009W
CSNr088/32.4CASANOVA VORTAC116.3006W
BALr233/36.6BALTIMORE VORTAC115.1011W

 
NDB name  Hdg/Dist  Freq  Var  ID
DAVEE323/4.622309WDAA -.. .- .-
OXONN258/7.833211WDCA -.. -.-. .-
GEORGETOWN201/13.232309WGTN --. - -.
SHANNON035/29.723710WEZF . --.. ..-.
GOODWIN LAKE123/33.622708WGDX --. -.. -..-
NAILR075/37.435110WMSQ -- ... --.-
ELLICOTT220/39.237111WFND ..-. -. -..

Airport Services

Runway Information

Runway 14/32

Dimensions: 5421 x 75 ft. / 1652 x 23 m
Surface: asphalt
Weight bearing capacity: 
PCN 52 /F/A/W/T
Runway edge lights: high intensity
RUNWAY 14  RUNWAY 32
Latitude: 38-43.202500N38-42.588200N
Longitude: 077-11.267333W077-10.440033W
Elevation: 48.8 ft.73.4 ft.
Traffic pattern: leftleft
Runway heading: 142 magnetic, 133 true322 magnetic, 313 true
Displaced threshold: 501 ft.902 ft.
Visual slope indicator: 2-light PAPI on left (3.00 degrees glide path)
RVR equipment: rollouttouchdown
Approach lights: NATO STD APPROACH LGTS (BP).MALSF: 1,400 foot medium intensity approach lighting system with sequenced flashers
Runway end identifier lights: nono
Touchdown point: yes, no lightsyes, no lights
Instrument approach: ILS/DME

Helipad H1

Dimensions: 50 x 50 ft. / 15 x 15 m
Surface: concrete
Latitude: 38-43.020000N
Longitude: 077-10.789833W
Elevation: 40.0 ft.
Traffic pattern: leftleft

Airport Ownership and Management from official FAA records

Ownership: U.S. Army
Owner: DAVISON ARMY AIRFIELD
US ARMY ATCA-ASO, 6970 BRITTON DR
FT BELVIOR, VA 22060
Manager: Phone 703-664-1201

Additional Remarks

FUEL:FUEL - J8. AVBL 1200-0300Z++ MON-FRI;1330-2130Z++ SAT-SUN,.
MISC-AERODROME BEACON LOCATED 4600' E-NE OF AFLD ON TOP OF DLA BLDG.
RSTD: RWY 14 PAPI ARE NON=STANDARD. VFR USE ONLY.
FOR CD WHEN ATCT IS CLSD CTC POTOMAC APCH AT 866-599-3874.
RSTD: TWY G, H, AND J CLSD FOR NIGHT AND IFR OPS DUE TO BEING UNLIT.
RSTD: HELIPAD 14/32 IS 50 FT BY 50 FT WIDE. LMTD TO H-60 AND SMALLER ACFT OPS.
HAZARDS: RWY 14 INBRD (INGROUND) THLD LGTS ARE REMOVED.
RSTD: HELIPAD 14/32 CLSD FOR NIGHT AND IFR OPS DUE TO BEING UNLIT.
OIL: 0-123-128-148-156.
OFFL BUS ONLY. PPR 24 HR NOTICE FOR ALL N0N DAA BASED ACFT,CTC BASE OPS 1200-2100Z++ WKD, DSN 656-7683/7682, C703-806-7682/7683.
RSTD: 24 HR PPR NVESD RAMP, DSN 656-7675/7676, C703-806-7675/7676.
CAUTON: EXP SHEAR/CROSSWIND SHIFT TDZ RWY 32 DUR SW-NW WIND. BIRD AND DEER HAZ.
TFC PAT: F/W R/W SW 1500', R/W/NE 1100'.
NS ABTMT: TWR WILL ADVS OF RSTD TO ENG RUN-UP, TKOF AND LDG BTN 0300-1300Z++ MON-SAT;2200-1700Z++ SUN AND HOL.
MISC: WITH CTL TWR/OPR APV, DEP ACFT MAY USE RWY APCH END OVRN FOR TKOF ROLL. WX FCST 1100-0230Z++ MON-FRI,EXC HOL, OT REMOTE BRIEFING SVC AVBL 15TH OWS, SCOTT AFB DSN 576-9755, C618-256-9755, FAX EXTN 4855 0R HTTP://OWS.SCOTT.AF.MIL. SEE VFR-S FOR PENTAGON HELIPORT.
ARNG: OPR 24/7. 24 HR PPR FOR TRAN ACFT, DSN 656-7092/7690, C703-806-7092/7690 FAX 7298.

Instrument Procedures

NOTE: All procedures below are presented as PDF files. If you need a reader for these files, you should download the free Adobe Reader.

NOT FOR NAVIGATION. Please procure official charts for flight.
FAA instrument procedures published for use between 1 February 2018 at 0901Z and 1 March 2018 at 0900Z.

 
STARs - Standard Terminal Arrivals
FRDMM THREE (RNAV)   2 pages: [1] [2] (446KB)
NUMMY TWO   download (288KB)
TIKEE THREE (RNAV)   download (212KB)
TRUPS THREE (RNAV)   2 pages: [1] [2] (459KB)
 
IAPs - Instrument Approach Procedures
ILS OR LOC RWY 32   download (145KB)
RNAV (GPS) RWY 14   download (68KB)
RNAV (GPS) RWY 32   download (103KB)
NDB RWY 32   download (131KB)
Radar Approach Procedures available   download
 
Departure Procedures
CLTCH ONE (RNAV) **CHANGED**   download (147KB)
JDUBB ONE (RNAV) **CHANGED**   download (155KB)
SCRAM THREE (RNAV) **CHANGED**   download (146KB)
NOTE: Special Take-Off Minimums/Departure Procedures apply   download (217KB)

Other nearby airports with instrument procedures:

2W5 - Maryland Airport (9 nm SE)
KDCA - Ronald Reagan Washington National Airport (11 nm NE)
KVKX - Potomac Airfield (11 nm E)
W32 - Washington Executive Airport/Hyde Field (12 nm E)
KNYG - Quantico Marine Corps Airfield / Turner Field (14 nm SW)
KHEF - Manassas Regional Airport/Harry P. Davis Field (16 nm W)
KADW - Joint Base Andrews (16 nm E)
KIAD - Washington Dulles International Airport (19 nm NW)
 
Loc | Ops | Rwys | IFR | FBO | Links
Com | Nav | Svcs | Stats | Notes

AirNav Hotels Sweepstakes
 
Area around KDAA (Davison Army Airfield)
 
Road maps at: MapQuest Bing Google
 
Aerial photo
WARNING: Photo may not be current or correct
Aerial photo of KDAA (Davison Army Airfield)
Photo by Jeff Long, SkyFocal.com
Photo taken 05-Nov-2011
looking northwest.

Do you have a better or more recent aerial photo of Davison Army Airfield that you would like to share? If so, please send us your photo.

 
Sectional chart

 
Airport distance calculator
Flying to Davison Army Airfield? Find the distance to fly.

From to KDAA

Sunrise and sunset
Times for 22-Feb-2018
 Local
(UTC-5)
 Zulu
(UTC)
Morning civil twilight06:2511:25
Sunrise06:5211:52
Sunset17:5322:53
Evening civil twilight18:2023:20

Current date and time
Zulu (UTC)  22-Feb-2018 17:41:01
Local (UTC-5)  22-Feb-2018 12:41:01
 
METAR
KDAA 221656Z AUTO 04003KT 10SM OVC025 13/06 A3047 RMK AO2 SLP321 T01330057 $
KDCA 
11nm NE 
221652Z 08008KT 10SM OVC025 13/07 A3048 RMK AO2 RAB29E43 SLP321 P0000 T01280072
KVKX 
11nm E 
SuperAWOS
221715Z AUTO 09007KT 10SM 13/08 A3045
KNYG 
14nm S 
221656Z 04006KT 10SM OVC023 13/07 A3048 RMK AO2 RAB15E25 SLP321 P0000 T01330072
KHEF 
16nm W 
221656Z 36007KT 10SM OVC025 11/04 A3047 RMK AO2 SLP331 T01110039 PNO $
KADW 
16nm NE 
221657Z AUTO 08006KT 10SM OVC023 12/07 A3046 RMK AO2 DZE56 SLP322 $
KIAD 
18nm NW 
221652Z 36006KT 10SM -DZ OVC025 11/04 A3047 RMK AO2 DZB33 SLP317 P0000 T01060044
TAF
KDAA 221109Z 2211/2316 35009KT 9999 OVC019 QNH3040INS BECMG 2213/2214 06009KT 8000 -SHRA OVC015 QNH3045INS BECMG 2216/2217 06012KT 8000 -SHRA OVC007 QNH3043INS BECMG 2222/2223 06009KT 4800 -RA BR OVC005 QNH3044INS TX19/2211Z TN04/2304Z
KDCA 
11nm NE 
221436Z 2215/2318 04013KT 5SM -RADZ OVC025 FM221700 03007KT 5SM -RADZ OVC008 FM230600 06006KT 2SM -RADZ OVC003 FM231500 09005KT 5SM -RADZ OVC008
KNYG 
14nm S 
2215/2315 06009KT 9999 BKN020 BKN035 OVC200 QNH3037INS FM230000 03009KT 9999 BKN020 BKN035 OVC200 QNH3042INS TEMPO 2200/2306 6000 SHRA BR BKN010 OVC025 FM230600 03009KT 9999 BKN020 BKN035 OVC200 QNH3045INS TEMPO 2306/2312 8000 SHRA BR BKN010 OVC025 TEMPO 2312/2315 8000 SHRA BR BKN010 OVC025 T14/2218Z T05/2309Z
KADW 
16nm NE 
221420Z 2214/2315 06009KT 8000 -SHRA OVC020 QNH3046INS BECMG 2216/2217 06012KT 8000 -SHRA OVC007 QNH3044INS BECMG 2222/2223 06009KT 4800 -RA BR OVC005 QNH3045INS TX12/2214Z TN04/2304Z
KIAD 
18nm NW 
221436Z 2215/2318 36010KT 5SM -RADZ OVC025 FM221600 04007KT 5SM -RADZ OVC008 FM230600 06005KT 2SM -RADZ OVC003 FM231500 12005KT 5SM -RADZ OVC008
NOTAMs
Click for the latest NOTAMs
NOTAMs are issued by the DoD/FAA and will open in a separate window not controlled by AirNav.

 

 
 

Would you like to see your business listed on this page?

 If your business provides an interesting product or service to pilots, flight crews, aircraft, or users of the Davison Army Airfield, you should consider listing it here.  To start the listing process, click on the button below
 
Add a business
 

Other Pages about Davison Army Airfield

Update a link
 
Copyright © AirNav, LLC. All rights reserved. Privacy Policy  Contact